Filewatcher File Search File Search
Catalog
Content Search
ftp://mirror.us.oneandone.net/software/repositories/fedora-epel/4/SRPMS/  direct

8.29 KB2009-06-30perl-Apache-LogRegex-1.4-1.el4.src.rpm  332+ mirrors
114.72 KB2009-06-30perl-Archive-Zip-1.16-0.1.2.1.el4.src.rpm  332+ mirrors
12.33 KB2009-07-01perl-Array-Compare-1.16-1.el4.src.rpm  332+ mirrors
8.71 KB2011-01-17perl-Authen-DigestMD5-0.04-10.el4.src.rpm  330+ mirrors
24.81 KB2009-06-30perl-Authen-Krb5-1.7-3.el4.src.rpm  332+ mirrors
49.46 KB2010-03-15perl-Authen-PAM-0.16-8.el4.src.rpm  354+ mirrors
46.20 KB2009-06-30perl-Authen-SASL-2.10-1.el4.1.src.rpm  354+ mirrors
25.30 KB2009-06-30perl-BSD-Resource-1.28-3.el4.src.rpm  332+ mirrors
165.57 KB2009-06-30perl-BerkeleyDB-0.32-0.1.el4.src.rpm  info  browse  336+ mirrors  Perl extension for Berkeley DB version 2, 3 or 4…more»   → /Main/Fedora/src/Development/Libraries/
92.67 KB2009-06-30perl-Boulder-1.30-3.el4.src.rpm  332+ mirrors
9.08 KB2009-06-30perl-Business-CreditCard-0.30-1.el4.src.rpm  332+ mirrors
46.08 KB2011-01-19perl-CDB_File-0.96-2.el4.src.rpm  330+ mirrors
72.38 KB2009-06-30perl-CGI-Session-4.35-1.el4.src.rpm  332+ mirrors
150.09 KB2009-06-30perl-CGI-Simple-0.077-7.el4.src.rpm  332+ mirrors
159.75 KB2009-06-30perl-CGI-SpeedyCGI-2.22-4.el4.src.rpm  info  browse  336+ mirrors  Speed up perl scripts by running them persistently…more»   → /Main/Fedora/src/Development/Libraries/
12.08 KB2009-06-30perl-CGI-Untaint-1.26-3.el4.src.rpm  info  browse  336+ mirrors  Process CGI input parameters…more»   → /Main/Fedora/src/Development/Libraries/
6.52 KB2009-06-30perl-CGI-Untaint-date-1.00-3.el4.src.rpm  332+ mirrors
30.57 KB2009-06-30perl-CPAN-DistnameInfo-0.06-1.el4.src.rpm  332+ mirrors
32.52 KB2011-02-27perl-CPAN-Meta-YAML-0.003-3.el4.src.rpm  info  browse  334+ mirrors  Read and write a subset of YAML for CPAN Meta files…more»   → /Main/Fedora/src/Development/Libraries/
37.88 KB2009-06-30perl-Cache-2.04-2.el4.3.src.rpm  332+ mirrors
39.33 KB2009-06-30perl-Cache-Cache-1.05-1.el4.1.src.rpm  info  browse  336+ mirrors  Generic cache interface and implementations…more»   → /Main/Fedora/src/Development/Libraries/
50.78 KB2010-02-15perl-Cache-FastMmap-1.34-5.el4.src.rpm  332+ mirrors
21.46 KB2009-06-30perl-Cache-Memcached-1.26-3.el4.src.rpm  332+ mirrors
24.53 KB2009-06-30perl-Cache-Mmap-0.09-1.el4.src.rpm  332+ mirrors
14.40 KB2009-06-30perl-Class-Accessor-0.31-1.el4.src.rpm  info  browse  336+ mirrors  Automated accessor generation…more»   → /Main/Fedora/src/Development/Libraries/
5.66 KB2009-06-30perl-Class-Accessor-Chained-0.01-5.el4.src.rpm  332+ mirrors
9.47 KB2009-06-30perl-Class-Data-Inheritable-0.06-2.el4.src.rpm  332+ mirrors
18.59 KB2009-06-30perl-Class-ErrorHandler-0.01-4.el4.src.rpm  332+ mirrors
6.83 KB2009-06-30perl-Class-Inner-0.1-4.el4.src.rpm  332+ mirrors
33.46 KB2009-06-30perl-Class-Inspector-1.17-1.el4.src.rpm  info  browse  336+ mirrors  Get information about a class and its structure…more»   → /Main/Fedora/src/Development/Libraries/
25.56 KB2010-12-20perl-Class-Load-0.06-3.el4.src.rpm  info  browse  334+ mirrors  A working (require "Class::Name") and more…more»   → /Main/Fedora/src/Development/Libraries/
10.84 KB2009-06-30perl-Class-Loader-2.03-5.el4.src.rpm  332+ mirrors
90.55 KB2009-06-30perl-Class-MethodMaker-2.08-1.el4.src.rpm  332+ mirrors
10.92 KB2009-08-19perl-Class-Singleton-1.03-3.el4.src.rpm  332+ mirrors
11.21 KB2009-06-30perl-Class-Trigger-0.12-1.el4.src.rpm  332+ mirrors
6.45 KB2009-06-30perl-Class-Whitehole-0.04-4.el4.src.rpm  332+ mirrors
15.08 KB2009-06-30perl-Clone-0.27-1.el4.src.rpm  info  browse  358+ mirrors  Recursively copy perl datatypes…more»   → /Main/Fedora/src/Development/Libraries/
211.10 KB2009-06-30perl-Compress-Raw-Zlib-2.020-1.el4.src.rpm  info  browse  336+ mirrors  Low-Level Interface to the zlib compression library…more»   → /Main/Fedora/src/Development/Libraries/
154.56 KB2009-06-30perl-Compress-Zlib-1.42-0.1.el4.src.rpm  332+ mirrors
42.48 KB2009-06-30perl-Config-IniFiles-2.39-6.el4.src.rpm  332+ mirrors
10.29 KB2010-04-06perl-Config-IniHash-3.00.00-5.el4.src.rpm  332+ mirrors
10.05 KB2009-06-30perl-Convert-ASCII-Armour-1.4-5.el4.src.rpm  332+ mirrors
86.20 KB2009-06-30perl-Convert-BinHex-1.119-5.el4.src.rpm  387+ mirrors
24.31 KB2009-06-30perl-Convert-PEM-0.07-5.el4.src.rpm  info  browse  336+ mirrors  Read/write encrypted ASN.1 PEM files…more»   → /Main/Fedora/src/Development/Libraries/
16.43 KB2009-06-30perl-Convert-TNEF-0.17-7.el4.src.rpm  info  browse  380+ mirrors  Perl module to read TNEF files…more»   → /Main/Fedora/src/Development/Libraries/
233.64 KB2011-10-08perl-Convert-UUlib-1.4-1.el4.src.rpm  329+ mirrors
21.36 KB2009-06-30perl-Crypt-Blowfish-2.10-6.el4.src.rpm  332+ mirrors
23.20 KB2009-06-30perl-Crypt-CAST5_PP-1.04-2.el4.src.rpm  332+ mirrors
21.76 KB2009-06-30perl-Crypt-CBC-2.17-1.el4.src.rpm  332+ mirrors
18.42 KB2009-06-30perl-Crypt-DES-2.05-3.el4.src.rpm  332+ mirrors
<<     1   2   3   4   5   6   7   8   9   10   11   12   13   14   15   16   17   18   19   20     >>
Results 551 - 600 of 1000
Help - FTP Sites List - Software Dir.
Search over 15 billion files
© 1997-2017 FileWatcher.com